CW0230 Weather Reports


time (UTC)temp
C
wind
direction
speed
KPH
gust
KPH
rain 1hr
cm
rain 24hr
cm
rain mn
cm
humidity
%
barometer
mb
20260507143504 16 149 9.7 25.7 0.00 0.00 0.00 57 1014.8
20260507142505 15 145 9.7 19.3 0.00 0.00 0.00 58 1014.9
20260507142004 16 149 9.7 20.9 0.00 0.00 0.00 57 1015.0
20260507141004 16 153 11.3 22.5 0.00 0.00 0.00 55 1015.0
20260507135505 17 145 16.1 25.7 0.00 0.00 0.00 54 1015.0
20260507135004 17 157 11.3 19.3 0.00 0.00 0.00 54 1015.0
20260507134005 17 146 9.7 27.4 0.00 0.00 0.00 52 1014.9
20260507133504 17 142 11.3 27.4 0.00 0.00 0.00 54 1014.9
20260507132504 17 173 11.3 20.9 0.00 0.00 0.00 54 1015.0
20260507132004 17 154 11.3 22.5 0.00 0.00 0.00 56 1015.0
20260507130505 17 194 12.9 20.9 0.00 0.00 0.00 57 1015.1
20260507130005 16 182 9.7 19.3 0.00 0.00 0.00 59 1015.0
20260507125505 16 191 9.7 27.4 0.00 0.00 0.00 57 1015.1
20260507124504 16 166 9.7 24.1 0.00 0.00 0.00 58 1015.1
20260507123505 16 143 9.7 16.1 0.00 0.00 0.00 57 1015.1
20260507123005 16 167 8.0 16.1 0.00 0.00 0.00 56 1015.1
20260507122504 16 197 8.0 16.1 0.00 0.00 0.00 56 1015.1
20260507122005 16 144 9.7 16.1 0.00 0.00 0.00 55 1015.2
20260507121505 16 170 8.0 16.1 0.00 0.00 0.00 55 1015.2
20260507121005 17 176 9.7 22.5 0.00 0.00 0.00 54 1015.2
20260507120504 17 157 9.7 22.5 0.00 0.00 0.00 55 1015.3
20260507120006 17 152 8.0 20.9 0.00 0.00 0.00 57 1015.3
20260507115505 17 207 9.7 20.9 0.00 0.00 0.00 57 1015.3
20260507115005 17 143 14.5 20.9 0.00 0.00 0.00 54 1015.3
20260507114004 17 181 12.9 20.9 0.00 0.00 0.00 55 1015.3
20260507113505 16 168 11.3 20.9 0.00 0.00 0.00 56 1015.3
20260507112504 16 155 12.9 19.3 0.00 0.00 0.00 55 1015.3
20260507110504 16 159 9.7 19.3 0.00 0.00 0.00 60 1015.4
20260507110005 16 178 9.7 19.3 0.00 0.00 0.00 59 1015.5
20260507105005 16 205 8.0 19.3 0.00 0.00 0.00 59 1015.5
20260507104505 15 189 8.0 19.3 0.00 0.00 0.00 61 1015.5
20260507103504 15 186 9.7 19.3 0.00 0.00 0.00 60 1015.5
20260507103005 15 178 11.3 20.9 0.00 0.00 0.00 59 1015.4
20260507102505 15 165 11.3 20.9 0.00 0.00 0.00 60 1015.4
20260507101504 15 148 11.3 19.3 0.00 0.00 0.00 56 1015.4
20260507100005 16 158 11.3 24.1 0.00 0.00 0.00 58 1015.5
20260507095004 16 150 8.0 19.3 0.00 0.00 0.00 61 1015.4
20260507094505 16 173 9.7 19.3 0.00 0.00 0.00 63 1015.4
20260507092504 15 147 11.3 20.9 0.00 0.00 0.00 65 1015.5
20260507092004 15 134 9.7 20.9 0.00 0.00 0.00 69 1015.4
20260507091504 15 179 9.7 20.9 0.00 0.00 0.00 69 1015.4
20260507091004 14 170 8.0 19.3 0.00 0.00 0.00 70 1015.5
20260507090504 14 151 8.0 19.3 0.00 0.00 0.00 70 1015.5
20260507085504 14 144 8.0 14.5 0.00 0.00 0.00 71 1015.6
20260507084005 13 152 4.8 14.5 0.00 0.00 0.00 74 1015.6
20260507082505 12 132 4.8 12.9 0.00 0.00 0.00 77 1015.6
20260507081004 12 179 3.2 11.3 0.00 0.00 0.00 80 1015.6
20260507075504 11 147 3.2 9.7 0.00 0.00 0.00 81 1015.5
20260507075005 11 87 4.8 9.7 0.00 0.00 0.00 80 1015.5
20260507074005 11 87 4.8 11.3 0.00 0.00 0.00 80 1015.4
20260507073504 11 86 4.8 11.3 0.00 0.00 0.00 80 1015.4
20260507072504 11 133 4.8 9.7 0.00 0.00 0.00 80 1015.4
20260507070009 10 123 4.8 11.3 0.00 0.00 0.00 80 1015.3
20260507064505 10 135 3.2 9.7 0.00 0.00 0.00 82 1015.2
20260507064005 10 114 3.2 9.7 0.00 0.00 0.00 82 1015.2
20260507063505 9 131 1.6 4.8 0.00 0.00 0.00 83 1015.2
20260507062005 9 139 3.2 4.8 0.00 0.00 0.00 82 1015.4
20260507061504 8 146 3.2 4.8 0.00 0.00 0.00 82 1015.3
20260507061004 8 146 3.2 4.8 0.00 0.00 0.00 82 1015.3
20260507055504 8 123 1.6 8.0 0.00 0.00 0.00 82 1015.1
20260507052004 8 107 1.6 3.2 0.00 0.00 0.00 80 1014.8
20260507050505 8 117 3.2 4.8 0.00 0.00 0.00 80 1014.9
20260507050006 8 100 1.6 4.8 0.00 0.00 0.00 79 1014.8
20260507043504 8 151 3.2 11.3 0.00 0.00 0.00 78 1014.7
20260507042505 8 120 3.2 9.7 0.00 0.00 0.00 78 1014.6
20260507042004 9 77 3.2 9.7 0.00 0.00 0.00 77 1014.7
20260507041504 9 97 3.2 9.7 0.00 0.00 0.00 77 1014.7
20260507041004 9 105 3.2 9.7 0.00 0.00 0.00 77 1014.7
20260507035504 9 90 4.8 11.3 0.00 0.00 0.00 76 1014.7
20260507035004 9 98 1.6 9.7 0.00 0.00 0.00 76 1014.7
20260507033505 9 143 1.6 4.8 0.00 0.00 0.00 75 1014.6
20260507032504 9 117 1.6 4.8 0.00 0.00 0.00 75 1014.6
20260507032004 9 135 3.2 8.0 0.00 0.00 0.00 74 1014.7
20260507031505 9 118 1.6 8.0 0.00 0.00 0.00 74 1014.7
20260507030504 9 79 3.2 8.0 0.00 0.00 0.00 74 1014.6
20260507025005 9 96 1.6 11.3 0.00 0.00 0.00 73 1014.7
20260507023005 9 115 1.6 8.0 0.00 0.00 0.00 73 1014.6
20260507022505 9 98 3.2 8.0 0.00 0.00 0.00 73 1014.6
20260507022004 9 116 1.6 9.7 0.00 0.00 0.00 73 1014.6
20260507021005 10 115 3.2 8.0 0.00 0.00 0.00 72 1014.6
20260507015505 10 95 1.6 8.0 0.00 0.00 0.00 72 1014.6
20260507015005 10 93 3.2 4.8 0.00 0.00 0.00 72 1014.7
20260507014504 10 81 3.2 4.8 0.00 0.00 0.00 72 1014.6
20260507013505 10 74 0.0 8.0 0.00 0.00 0.00 72 1014.7
20260507013005 10 89 3.2 11.3 0.00 0.00 0.00 71 1014.6
20260507012505 10 111 3.2 11.3 0.00 0.00 0.00 71 1014.6
20260507011005 10 79 1.6 4.8 0.00 0.00 0.00 71 1014.6
20260507010005 10 78 1.6 8.0 0.00 0.00 0.00 71 1014.6
20260507005505 10 83 1.6 8.0 0.00 0.00 0.00 71 1014.5
20260507004505 10 121 0.0 4.8 0.00 0.00 0.00 71 1014.6
20260507002505 10 117 1.6 8.0 0.00 0.00 0.00 71 1014.7
20260507002004 10 74 1.6 4.8 0.00 0.00 0.00 72 1014.7
20260507001505 10 72 1.6 4.8 0.00 0.00 0.00 72 1014.7
20260507001005 10 77 3.2 4.8 0.00 0.00 0.00 72 1014.7
20260506233505 10 126 0.0 0.0 0.00 0.00 0.00 79 1014.7
20260506232505 10 126 0.0 1.6 0.00 0.00 0.00 80 1014.7
20260506231504 10 126 0.0 1.6 0.00 0.00 0.00 80 1014.7
20260506231004 10 126 0.0 1.6 0.00 0.00 0.00 80 1014.7
20260506230504 10 126 0.0 1.6 0.00 0.00 0.00 81 1014.7
20260506230004 10 126 0.0 1.6 0.00 0.00 0.00 82 1014.8
20260506225504 10 126 0.0 0.0 0.00 0.00 0.00 81 1014.7
20260506224504 10 126 0.0 0.0 0.00 0.00 0.00 81 1014.8
20260506223505 10 126 0.0 0.0 0.00 0.00 0.00 80 1014.6
20260506221504 10 126 0.0 0.0 0.00 0.00 0.00 79 1014.6
20260506220504 10 126 0.0 1.6 0.00 0.00 0.00 78 1014.6
20260506215504 10 126 0.0 3.2 0.00 0.00 0.00 77 1014.5
20260506214505 11 126 0.0 4.8 0.00 0.00 0.00 76 1014.5
20260506214005 11 127 0.0 3.2 0.00 0.00 0.00 76 1014.5
20260506213005 11 127 0.0 3.2 0.00 0.00 0.00 75 1014.6
20260506211005 11 138 1.6 4.8 0.00 0.00 0.00 75 1014.4
20260506210504 12 144 1.6 4.8 0.00 0.00 0.00 74 1014.4
20260506205504 12 144 1.6 3.2 0.00 0.00 0.00 74 1014.3
20260506203504 12 144 1.6 3.2 0.00 0.00 0.00 73 1014.2
20260506203005 12 144 0.0 3.2 0.00 0.00 0.00 72 1014.2
20260506202505 12 144 0.0 3.2 0.00 0.00 0.00 72 1014.2
20260506202004 12 144 1.6 1.6 0.00 0.00 0.00 71 1014.1
20260506201505 12 144 0.0 3.2 0.00 0.00 0.00 70 1014.1
20260506200504 12 144 0.0 4.8 0.00 0.00 0.00 69 1014.1
20260506195504 12 184 1.6 4.8 0.00 0.00 0.00 66 1013.9
20260506194004 13 149 3.2 4.8 0.00 0.00 0.00 60 1013.8
20260506193005 13 39 0.0 4.8 0.00 0.00 0.00 56 1013.8
20260506185504 13 23 3.2 8.0 0.00 0.00 0.00 52 1013.6
20260506184505 14 12 3.2 4.8 0.00 0.00 0.00 52 1013.6
20260506183504 14 22 1.6 4.8 0.00 0.00 0.00 53 1013.5
20260506182504 14 338 3.2 4.8 0.00 0.00 0.00 52 1013.5
20260506182005 14 22 3.2 4.8 0.00 0.00 0.00 52 1013.5
20260506180505 14 333 3.2 4.8 0.00 0.00 0.00 51 1013.4
20260506180006 14 48 1.6 4.8 0.00 0.00 0.00 50 1013.3
20260506175505 14 8 3.2 4.8 0.00 0.00 0.00 51 1013.3
20260506175005 14 24 1.6 4.8 0.00 0.00 0.00 51 1013.3
20260506174004 15 320 1.6 4.8 0.00 0.00 0.00 49 1013.2
20260506173504 15 358 3.2 8.0 0.00 0.00 0.00 49 1013.1
20260506173005 15 38 3.2 8.0 0.00 0.00 0.00 48 1013.2
20260506171504 15 3 3.2 8.0 0.00 0.00 0.00 48 1013.1
20260506164004 15 5 3.2 12.9 0.00 0.00 0.00 48 1013.1
20260506163504 15 10 4.8 12.9 0.00 0.00 0.00 47 1013.2
20260506163005 15 340 3.2 8.0 0.00 0.00 0.00 47 1013.1
20260506161505 15 5 1.6 8.0 0.00 0.00 0.00 48 1013.1
20260506161005 15 333 3.2 8.0 0.00 0.00 0.00 46 1013.1
20260506160504 15 34 3.2 11.3 0.00 0.00 0.00 47 1013.1
20260506160005 15 21 4.8 11.3 0.00 0.00 0.00 47 1013.1
20260506155505 15 2 3.2 9.7 0.00 0.00 0.00 47 1013.1
20260506155005 15 343 3.2 9.7 0.00 0.00 0.00 48 1013.1
20260506153505 15 6 4.8 8.0 0.00 0.00 0.00 47 1013.2
20260506150505 16 16 4.8 12.9 0.00 0.00 0.00 46 1013.2
20260506150005 16 331 4.8 11.3 0.00 0.00 0.00 48 1013.2
20260506145004 16 30 8.0 12.9 0.00 0.00 0.00 46 1013.3
20260506144504 16 303 3.2 12.9 0.00 0.00 0.00 47 1013.3